EA3HRE-13 Weather Reports


Display with metric or nautical units.
time (UTC)temp
F
wind
direction
speed
MPH
gust
MPH
rain 1hr
in
rain 24hr
in
rain mn
in
humidity
%
barometer
mb
20260510102359 71 149 0.0 0.0 0.00 0.00 0.00 100 1014.1
20260510101329 71 224 0.0 0.0 0.00 0.00 0.00 100 1014.0
20260510100329 70 214 0.0 0.0 0.00 0.00 0.00 100 1014.2
20260510095329 71 204 0.0 0.0 0.00 0.00 0.00 100 1014.3
20260510094329 70 179 0.0 0.0 0.00 0.00 0.00 100 1014.2
20260510093329 69 194 0.0 0.0 0.00 0.00 0.00 100 1014.1
20260510092259 70 188 0.0 0.0 0.00 0.00 0.00 100 1014.0
20260510091259 70 208 0.0 0.0 0.00 0.00 0.00 100 1014.2
20260510090259 70 209 0.0 0.0 0.00 0.00 0.00 100 1014.0
20260510085259 69 204 0.0 0.0 0.00 0.00 0.00 100 1014.2
20260510084229 67 237 0.0 0.0 0.00 0.00 0.00 100 1014.3
20260510083228 66 267 0.0 0.0 0.00 0.00 0.00 100 1014.1
20260510082228 65 215 0.0 0.0 0.00 0.00 0.00 100 1014.4
20260510081228 66 223 0.0 0.0 0.00 0.00 0.00 100 1014.3
20260510080228 66 203 0.0 0.0 0.00 0.00 0.00 100 1014.0
20260510075228 65 210 0.0 0.0 0.00 0.00 0.00 100 1014.1
20260510074158 64 235 0.0 0.0 0.00 0.00 0.00 100 1014.0
20260510073158 64 178 0.0 0.0 0.00 0.00 0.00 100 1013.8
20260510072128 63 37 0.0 0.0 0.00 0.00 0.00 100 1013.9
20260510071128 62 37 0.0 0.0 0.00 0.00 0.00 100 1013.7
20260510070127 61 37 0.0 0.0 0.00 0.00 0.00 100 1013.8
20260510065127 60 37 0.0 0.0 0.00 0.00 0.00 100 1013.7
20260510064127 59 37 0.0 0.0 0.00 0.00 0.00 100 1013.7
20260510063127 58 37 0.0 0.0 0.00 0.00 0.00 100 1013.7
20260510062057 58 37 0.0 0.0 0.00 0.00 0.00 100 1013.7
20260510061057 57 37 0.0 0.0 0.00 0.00 0.00 100 1013.7
20260510060057 56 37 0.0 0.0 0.00 0.00 0.00 100 1013.6
20260510055057 55 37 0.0 0.0 0.00 0.00 0.00 100 1013.6
20260510054057 55 37 0.0 0.0 0.00 0.00 0.00 100 1013.6
20260510053027 54 37 0.0 0.0 0.00 0.00 0.00 100 1013.5
20260510052027 54 37 0.0 0.0 0.00 0.00 0.00 100 1013.6
20260510051026 54 37 0.0 0.0 0.00 0.00 0.00 100 1013.3
20260510045956 54 37 0.0 0.0 0.00 0.00 0.00 100 1013.4
20260510044956 54 37 0.0 0.0 0.00 0.00 0.00 100 1013.4
20260510043956 54 37 0.0 0.0 0.00 0.00 0.00 100 1013.5
20260510042926 54 37 0.0 0.0 0.00 0.00 0.00 100 1013.6
20260510041926 55 37 0.0 0.0 0.00 0.00 0.00 100 1013.5
20260510040926 55 37 0.0 0.0 0.00 0.00 0.00 100 1013.5
20260510035926 55 37 0.0 0.0 0.00 0.00 0.00 100 1013.6
20260510034926 55 37 0.0 0.0 0.00 0.00 0.00 100 1013.4
20260510033925 55 37 0.0 0.0 0.00 0.00 0.00 100 1013.5
20260510032925 55 37 0.0 0.0 0.00 0.00 0.00 100 1013.4
20260510031910 54 37 0.0 0.0 0.00 0.00 0.00 100 1013.4
20260510030855 54 37 0.0 0.0 0.00 0.00 0.00 100 1013.5
20260510025550 54 37 0.0 0.0 0.00 0.00 0.00 100 1013.3
20260510024550 54 37 0.0 0.0 0.00 0.00 0.00 100 1013.5
20260510023550 54 37 0.0 0.0 0.00 0.00 0.00 100 1013.6
20260510022550 54 37 0.0 0.0 0.00 0.00 0.00 100 1013.6
20260510021550 54 37 0.0 0.0 0.00 0.00 0.00 100 1013.7
20260510020520 54 37 0.0 0.0 0.00 0.00 0.00 100 1013.7
20260510015519 55 37 0.0 0.0 0.00 0.00 0.00 100 1013.7
20260510014519 55 37 0.0 0.0 0.00 0.00 0.00 100 1013.6
20260510013519 55 37 0.0 0.0 0.00 0.00 0.00 100 1013.5
20260510012449 55 37 0.0 0.0 0.00 0.00 0.00 100 1013.6
20260510011449 55 37 0.0 0.0 0.00 0.00 0.00 100 1013.7
20260510010419 56 37 0.0 0.0 0.00 0.00 0.00 100 1013.6
20260510005419 56 37 0.0 0.0 0.00 0.00 0.00 100 1013.5
20260510004419 56 37 0.0 0.0 0.00 0.00 0.00 100 1013.5
20260510003349 57 37 0.0 0.0 0.00 0.00 0.00 100 1013.5
20260510002349 57 37 0.0 0.0 0.00 0.00 0.00 100 1013.5
20260510001348 57 37 0.0 0.0 0.00 0.00 0.00 100 1013.5
20260510000349 57 37 0.0 0.0 0.00 0.00 0.00 100 1013.6
20260509235348 57 37 0.0 0.0 0.00 0.00 0.00 100 1013.7
20260509234318 57 37 0.0 0.0 0.00 0.00 0.00 100 1013.7
20260509233318 58 37 0.0 0.0 0.00 0.00 0.00 100 1013.7
20260509232318 57 37 0.0 1.0 0.00 0.00 0.00 100 1013.9
20260509231318 58 37 0.0 0.0 0.00 0.00 0.00 100 1014.3
20260509230318 58 37 0.0 1.0 0.00 0.00 0.00 100 1014.1
20260509225318 58 37 0.0 0.0 0.00 0.00 0.00 100 1014.3
20260509224317 58 37 0.0 0.0 0.00 0.00 0.00 100 1014.4
20260509223317 58 37 0.0 0.0 0.00 0.00 0.00 100 1014.4
20260509222317 58 37 0.0 0.0 0.00 0.00 0.00 100 1014.3
20260509221317 58 37 0.0 0.0 0.00 0.00 0.00 100 1014.2
20260509220317 58 37 0.0 0.0 0.00 0.00 0.00 100 1014.1
20260509215247 58 37 0.0 0.0 0.00 0.00 0.00 100 1014.0
20260509214247 58 37 0.0 0.0 0.00 0.00 0.00 100 1014.0
20260509213247 58 37 0.0 0.0 0.00 0.00 0.00 100 1013.9
20260509212247 58 37 0.0 0.0 0.00 0.00 0.00 100 1013.7
20260509211246 59 37 0.0 0.0 0.00 0.00 0.00 100 1013.5
20260509210246 59 37 0.0 1.0 0.00 0.00 0.00 100 1013.7
20260509205246 59 37 0.0 0.0 0.00 0.00 0.00 100 1013.6
20260509204246 59 37 0.0 0.0 0.00 0.00 0.00 100 1013.7
20260509203246 59 37 0.0 0.0 0.00 0.00 0.00 100 1013.7
20260509202246 59 37 0.0 0.0 0.00 0.00 0.00 100 1013.5
20260509201246 59 42 0.0 0.0 0.00 0.00 0.00 100 1013.3
20260509200246 59 42 0.0 0.0 0.00 0.00 0.00 100 1013.0
20260509195246 59 42 0.0 0.0 0.00 0.00 0.00 100 1012.8
20260509194245 59 42 0.0 0.0 0.00 0.00 0.00 100 1012.5
20260509193245 59 42 0.0 0.0 0.00 0.00 0.00 100 1012.4
20260509192245 60 42 0.0 0.0 0.00 0.00 0.00 100 1012.2
20260509191245 60 42 0.0 0.0 0.00 0.00 0.00 100 1011.8
20260509190245 60 42 0.0 0.0 0.00 0.00 0.00 100 1011.8
20260509185215 61 42 0.0 0.0 0.00 0.00 0.00 100 1011.7
20260509184215 62 42 0.0 0.0 0.00 0.00 0.00 100 1011.7
20260509183215 61 25 0.0 0.0 0.00 0.00 0.00 100 1011.5
20260509182145 61 25 0.0 0.0 0.00 0.00 0.00 100 1011.5
20260509181145 61 25 0.0 0.0 0.00 0.00 0.00 100 1011.4
20260509180145 61 25 0.0 0.0 0.00 0.00 0.00 100 1011.4
20260509175145 61 25 0.0 0.0 0.00 0.00 0.00 100 1011.1
20260509174145 60 25 0.0 0.0 0.00 0.00 0.00 100 1010.8
20260509173145 60 26 0.0 0.0 0.00 0.00 0.00 100 1010.5
20260509172115 60 26 0.0 0.0 0.00 0.00 0.00 100 1010.1
20260509171044 60 24 0.0 0.0 0.00 0.00 0.00 100 1010.3
20260509170044 60 15 0.0 0.0 0.00 0.00 0.00 100 1010.6
20260509165044 60 27 0.0 0.0 0.00 0.00 0.00 100 1011.0
20260509164014 60 35 0.0 0.0 0.00 0.00 0.00 100 1011.3
20260509163014 60 25 0.0 0.0 0.00 0.00 0.00 100 1011.4
20260509161946 60 0 0.0 0.0 0.00 0.00 0.00 100 1011.7
20260509160944 60 5 0.0 0.0 0.00 0.00 0.00 100 1011.8
20260509155944 60 7 0.0 0.0 0.00 0.00 0.00 100 1012.0
20260509154914 61 0 0.0 0.0 0.00 0.00 0.00 100 1012.6
20260509153914 61 0 0.0 0.0 0.00 0.00 0.00 100 1012.8
20260509152914 61 74 0.0 0.0 0.00 0.00 0.00 100 1013.0
20260509151914 62 182 0.0 0.0 0.00 0.00 0.00 100 1013.4
20260509150844 62 182 0.0 0.0 0.00 0.00 0.00 100 1013.6
20260509145843 62 180 0.0 0.0 0.00 0.00 0.00 100 1013.6
20260509144843 72 167 0.0 0.0 0.00 0.00 0.00 100 1026.2
20260509143843 69 10 0.0 0.0 0.00 0.00 0.00 100 1024.7
20260509142813 62 9 0.0 0.0 0.00 0.00 0.00 100 1011.4
20260509141813 62 0 0.0 0.0 0.00 0.00 0.00 100 1011.2
20260509140813 63 26 0.0 0.0 0.00 0.00 0.00 100 1010.8
20260509135813 63 3 0.0 0.0 0.00 0.00 0.00 100 1010.6
20260509134743 64 24 0.0 0.0 0.00 0.00 0.00 100 1010.8
20260509133743 64 52 3.0 8.0 0.00 0.00 0.00 100 1011.3
20260509132743 64 66 3.0 3.0 0.00 0.00 0.00 100 1011.8
20260509131743 64 63 0.0 3.0 0.00 0.00 0.00 100 1012.3
20260509130743 64 54 1.0 3.0 0.00 0.00 0.00 100 1012.6
20260509125742 65 65 0.0 0.0 0.00 0.00 0.00 100 1012.9
20260509124712 66 35 3.0 5.0 0.00 0.00 0.00 100 1012.8
20260509123712 66 68 0.0 1.0 0.00 0.00 0.00 100 1012.6
20260509122712 67 76 3.0 5.0 0.00 0.00 0.00 100 1012.1
20260509121712 67 65 0.0 4.0 0.00 0.00 0.00 100 1012.0
20260509120712 68 47 3.0 8.0 0.00 0.00 0.00 100 1011.6
20260509115712 68 34 5.0 5.0 0.00 0.00 0.00 100 1011.7
20260509114712 68 60 3.0 7.0 0.00 0.00 0.00 100 1012.2
20260509113712 67 45 9.0 9.0 0.00 0.00 0.00 100 1012.6
20260509112712 67 73 0.0 0.0 0.00 0.00 0.00 100 1013.0
20260509111641 67 91 0.0 7.0 0.00 0.00 0.00 100 1013.6
20260509110641 67 71 0.0 2.0 0.00 0.00 0.00 100 1013.7
20260509105611 68 106 5.0 10.0 0.00 0.00 0.00 100 1013.5
20260509104611 69 94 0.0 0.0 0.00 0.00 0.00 100 1013.2
20260509103611 68 105 6.0 6.0 0.00 0.00 0.00 100 1013.3
20260509102611 68 127 0.0 0.0 0.00 0.00 0.00 100 1013.7